SCP
-0 -0 -0 -0 -0 -0 -0 -0 -0 -0 -0 0 -0 -0 -0 -0 -0 -0 -0 -0 -0 -0 -0 -0 -0 -0 0
0 -0 -0 -0 -0 -0 -0 -0 0 0 0 0 0 -0 -0 -0 -0 -0 -0 -0 -0 -0 -0 -0 -0 0 0
0 0 0 -0 -0 -0 -0 -0 0 0 0 0 -0 -0 -0 -0 -0 -0 -0 -0 -0 -0 -0 -0 -0 0 0
0 0 0 0 0 0 0 0 0 0 0 0 -0 -0 -0 -0 -0 -0 -0 0 0 0 0 0 0 0 0
0 0 0 0 0 0 0 0 0 0 0 0 0 0 0 0 0 0 0 0 0 0 0 0 0 0 0
0 0 0 0 0 0 0 0 0 0 0 0 0 0 0 0 0 0 0 0 0 0 0 0 0 0 0
0 0 0 0 0 0 0 0 0 0 0 0 0 0 0 0 0 0 0 0 0 0 0 0 0 0 0
0 0 0 0 0 0 0 0 0 0 0 0 0 0 0 0 0 0 0 0 0 0 0 0 0 0 0
0 0 0 0 0 0 0 0 0 0 0 0 0 0 0 0 0 0 0 0 0 0 0 0 0 0 0
0 0 0 0 0 0 0 0 0 0 0 0 0 0 0 0 0 0 0 0 0 0 0 0 0 0 0
0 0 0 0 0 0 0 0 0 0 0 0 0 0 0 0 0 0 0 0 0 0 0 0 0 0 0
0 0 0 0 0 0 0 0 0 0 0 0 0 0 0 0 0 0 0 0 0 0 0 0 0 0 0
0 0 0 0 0 0 0 0 0 0 0 0 0 0 0 0 0 0 0 0 0 0 0 0 0 0 0
0 0 0 0 0 0 0 0 0 0 0 0 0 0 0 0 0 0 0 0 0 0 0 0 0 0 0
0 0 0 0 0 0 0 0 0 0 0 0 0 0 0 0 0 0 0 0 0 0 0 0 0 0 0
0 0 0 0 0 0 0 0 0 0 0 0 0 0 0 0 0 0 0 0 0 0 0 0 0 0 0
Wind_Speed_500mb
22 20 18 16 14 16 17 17 17 17 18 21 24 25 25 23 22 21 22 23 24 23 23 22 22 22 22
21 20 18 19 20 20 20 18 17 19 22 24 23 21 19 17 17 18 18 20 21 18 18 19 23 19 19
22 22 23 24 24 22 20 18 21 22 22 21 18 15 14 13 14 13 12 14 17 19 21 23 23 23 24
24 25 27 26 24 21 19 19 21 20 18 15 12 10 10 11 12 11 14 18 22 25 27 28 28 26 24
28 28 28 25 22 19 17 19 19 17 14 11 7 6 7 8 14 19 21 25 30 35 33 35 32 30 33
29 28 26 23 20 19 17 17 17 15 11 8 3 3 9 12 20 25 27 32 38 39 37 33 30 28 26
30 29 25 21 19 18 16 15 15 11 10 7 2 5 9 15 19 27 29 34 37 32 27 26 25 26 26
31 28 24 21 18 16 14 16 18 15 13 11 7 8 13 18 21 26 27 32 30 24 20 20 23 27 26
28 24 20 19 18 19 18 18 14 12 11 10 11 16 20 22 26 26 29 29 21 17 18 19 24 27 24
28 26 31 29 23 20 20 19 18 17 17 17 19 22 26 30 29 28 24 20 19 19 18 21 26 22 18
37 36 35 31 30 25 26 23 22 20 21 22 25 27 32 31 27 25 25 21 17 17 21 25 19 16 13
44 40 35 35 32 31 28 29 26 27 28 30 31 32 32 27 23 18 15 18 23 25 23 24 17 13 12
46 42 39 38 36 36 32 33 34 33 32 30 29 25 17 15 15 14 16 20 23 24 24 20 13 17 17
45 42 40 40 39 38 38 38 34 31 31 25 20 17 12 7 13 15 23 30 33 31 26 17 9 10 16
53 45 47 46 44 43 43 37 30 26 17 18 11 2 4 10 20 29 33 34 30 26 20 12 8 6 24
55 56 56 54 55 50 40 36 26 17 13 9 10 11 15 30 35 42 35 29 26 22 18 14 10 13 12
Wind_Direction_500mb
179 183 186 180 170 157 148 139 133 127 118 108 101 97 91 82 74 67 58 48 41 38 32 25 14 7 7
182 181 179 171 164 157 150 146 137 131 121 114 110 105 97 80 65 57 48 39 34 27 18 1 355 352 350
182 174 167 164 162 158 155 143 137 133 129 125 120 108 98 73 59 49 33 19 10 0 349 343 340 341 332
180 171 166 163 160 159 155 149 147 146 142 132 116 93 78 58 34 7 357 347 342 339 334 332 331 329 321
179 175 169 165 163 160 159 157 159 158 153 142 126 94 38 13 354 338 333 331 333 328 327 331 326 319 319
180 177 174 170 171 170 164 166 172 169 164 158 140 24 354 339 328 325 322 326 327 322 322 329 328 323 320
176 179 179 173 169 167 169 173 173 180 186 196 246 310 317 320 316 309 313 321 324 328 331 334 326 322 323
180 179 174 169 174 175 177 180 193 201 208 233 257 284 288 297 301 307 314 318 324 330 335 337 327 325 325
178 176 186 184 182 191 195 197 201 202 213 238 265 278 287 289 293 305 310 313 320 327 336 334 330 330 340
175 190 194 199 205 199 197 202 210 224 246 264 274 287 288 291 301 308 309 309 313 319 334 334 327 323 322
193 199 204 202 201 200 207 218 228 241 257 271 281 292 293 288 292 291 294 293 290 298 318 330 316 302 294
201 203 206 208 214 212 222 227 237 248 260 275 282 286 284 277 272 270 276 292 303 314 324 327 305 287 270
208 210 215 221 219 223 228 241 245 253 263 263 269 271 273 268 265 284 309 312 311 322 333 334 303 288 247
214 218 218 221 226 230 235 239 241 245 247 242 243 236 234 289 321 328 336 339 338 340 342 336 297 280 243
215 214 216 224 228 227 229 223 217 214 197 201 181 119 36 354 343 344 340 339 345 353 355 358 314 294 309
213 220 222 226 224 220 209 203 190 163 124 91 88 13 6 335 329 323 325 337 345 354 1 1 340 311 326
Wind_Speed_850mb
22 20 18 16 14 16 17 17 17 17 18 21 24 25 25 23 22 21 22 23 24 23 23 22 22 22 22
21 20 18 19 20 20 20 18 17 19 22 24 23 21 19 17 17 18 18 20 21 18 18 19 23 19 19
22 22 23 24 24 22 20 18 21 22 22 21 18 15 14 13 14 13 12 14 17 19 21 23 23 23 24
24 25 27 26 24 21 19 19 21 20 18 15 12 10 10 11 12 11 14 18 22 25 27 28 28 26 24
28 28 28 25 22 19 17 19 19 17 14 11 7 6 7 8 14 19 21 25 30 35 33 35 32 30 33
29 28 26 23 20 19 17 17 17 15 11 8 3 3 9 12 20 25 27 32 38 39 37 33 30 28 26
30 29 25 21 19 18 16 15 15 11 10 7 2 5 9 15 19 27 29 34 37 32 27 26 25 26 26
31 28 24 21 18 16 14 16 18 15 13 11 7 8 13 18 21 26 27 32 30 24 20 20 23 27 26
28 24 20 19 18 19 18 18 14 12 11 10 11 16 20 22 26 26 29 29 21 17 18 19 24 27 24
28 26 31 29 23 20 20 19 18 17 17 17 19 22 26 30 29 28 24 20 19 19 18 21 26 22 18
37 36 35 31 30 25 26 23 22 20 21 22 25 27 32 31 27 25 25 21 17 17 21 25 19 16 13
44 40 35 35 32 31 28 29 26 27 28 30 31 32 32 27 23 18 15 18 23 25 23 24 17 13 12
46 42 39 38 36 36 32 33 34 33 32 30 29 25 17 15 15 14 16 20 23 24 24 20 13 17 17
45 42 40 40 39 38 38 38 34 31 31 25 20 17 12 7 13 15 23 30 33 31 26 17 9 10 16
53 45 47 46 44 43 43 37 30 26 17 18 11 2 4 10 20 29 33 34 30 26 20 12 8 6 24
55 56 56 54 55 50 40 36 26 17 13 9 10 11 15 30 35 42 35 29 26 22 18 14 10 13 12
Wind_Direction_850mb
179 183 186 180 170 157 148 139 133 127 118 108 101 97 91 82 74 67 58 48 41 38 32 25 14 7 7
182 181 179 171 164 157 150 146 137 131 121 114 110 105 97 80 65 57 48 39 34 27 18 1 355 352 350
182 174 167 164 162 158 155 143 137 133 129 125 120 108 98 73 59 49 33 19 10 0 349 343 340 341 332
180 171 166 163 160 159 155 149 147 146 142 132 116 93 78 58 34 7 357 347 342 339 334 332 331 329 321
179 175 169 165 163 160 159 157 159 158 153 142 126 94 38 13 354 338 333 331 333 328 327 331 326 319 319
180 177 174 170 171 170 164 166 172 169 164 158 140 24 354 339 328 325 322 326 327 322 322 329 328 323 320
176 179 179 173 169 167 169 173 173 180 186 196 246 310 317 320 316 309 313 321 324 328 331 334 326 322 323
180 179 174 169 174 175 177 180 193 201 208 233 257 284 288 297 301 307 314 318 324 330 335 337 327 325 325
178 176 186 184 182 191 195 197 201 202 213 238 265 278 287 289 293 305 310 313 320 327 336 334 330 330 340
175 190 194 199 205 199 197 202 210 224 246 264 274 287 288 291 301 308 309 309 313 319 334 334 327 323 322
193 199 204 202 201 200 207 218 228 241 257 271 281 292 293 288 292 291 294 293 290 298 318 330 316 302 294
201 203 206 208 214 212 222 227 237 248 260 275 282 286 284 277 272 270 276 292 303 314 324 327 305 287 270
208 210 215 221 219 223 228 241 245 253 263 263 269 271 273 268 265 284 309 312 311 322 333 334 303 288 247
214 218 218 221 226 230 235 239 241 245 247 242 243 236 234 289 321 328 336 339 338 340 342 336 297 280 243
215 214 216 224 228 227 229 223 217 214 197 201 181 119 36 354 343 344 340 339 345 353 355 358 314 294 309
213 220 222 226 224 220 209 203 190 163 124 91 88 13 6 335 329 323 325 337 345 354 1 1 340 311 326